Terminal Aerodrome Forecast
Issued by NWS

Home | Current Version | Previous Version | Text Only | Print | Product List | Glossary On
Versions: 1 2 3 4 5 6 7 8 9 10 11 12 13 14 15 16 17 18 19
000
FTUS41 KBOX 250542
TAFBAF
TAF
KBAF 250542Z 2506/2606 18005KT P6SM OVC015
     FM250900 18004KT 4SM BR OVC003
     FM251400 16009KT P6SM BKN060
     FM252000 16009KT P6SM VCSH BKN030
     FM252200 17008KT 4SM -SHRA BR OVC008
     FM260300 30009KT P6SM VCSH OVC060
     FM260500 30010G26KT P6SM BKN200=

USA.gov is the U.S. government's official web portal to all federal, state and local government web resources and services.